Regional Weather Roundup
Issued by NWS

Home | Current Version | Previous Version | Graphics & Text | Print | Product List | Glossary On
Versions: 1 2 3 4 5 6 7 8 9 10 11 12 13 14 15 16 17 18 19 20 21 22 23 24 25 26 27 28 29 30 31 32 33 34 35 36 37 38 39 40 41 42 43 44 45 46 47 48 49 50
430
ASUS45 KBOU 222307
RWRCO

WEATHER ROUNDUP FOR COLORADO
NATIONAL WEATHER SERVICE DENVER/BOULDER CO
500 PM MDT SAT JUL 22 2017

NOTE: "FAIR" INDICATES FEW OR NO CLOUDS BELOW 12000 FEET WITH NO
SIGNIFICANT WEATHER AND/OR OBSTRUCTIONS TO VISIBILITY.

COZ001>005-013-030-031-230000-
...NORTHWEST COLORADO...

CITY           SKY/WX    TMP DP  RH WIND       PRES   REMARKS
CRAIG          FAIR      89  26  10 N9        30.21F
HAYDEN         FAIR     N/A N/A N/A N13G20    30.24F
MEEKER         FAIR      87  36  16 E8G18     30.22F
RABBIT EARS PA FAIR      64  36  34 W7G22     30.58F
STEAMBOAT SPGS FAIR      84  34  17 NW10      30.26F
WALDEN         FAIR      77  34  20 N15G23    30.39S
$$

COZ006>008-011-230000-
...WEST CENTRAL VALLEYS...

CITY           SKY/WX    TMP DP  RH WIND       PRES   REMARKS
GRAND JUNCTION FAIR      93  52  24 SW7       30.05F
MONTROSE       FAIR      86  48  26 CALM      30.15F
EAGLE          SUNNY     86  41  20 NE8       30.23F
RIFLE          FAIR      93  36  13 NW8       30.11F
DELTA          FAIR      89  51  26 SW5       30.11F
NUCLA          FAIR      84  45  24 SE6       30.19F
$$

COZ017>023-064>068-230000-
...SOUTHWEST COLORADO...

CITY           SKY/WX    TMP DP  RH WIND       PRES   REMARKS
DURANGO        LGT RAIN  63  55  75 E16       30.31R
CORTEZ         FAIR      81  51  35 N10       30.15F
PAGOSA SPRINGS RAIN      61  51  70 N7        30.39S
TELLURIDE      PTSUNNY   64  51  64 CALM      30.45F
WOLF CREEK PAS CLOUDY    45  41  87 W6        30.72S
$$

COZ009-010-012-014-032>034-037-058>063-230000-
...CENTRAL COLORADO...

CITY           SKY/WX    TMP DP  RH WIND       PRES   REMARKS
ASPEN          FAIR      77  48  35 SE12      30.31F
BUENA VISTA    PTSUNNY   71  44  38 N12G29    30.38R
COPPER MTN     NOT AVBL
BERTHOUD PASS  FAIR      52  37  58 NW7       30.73F
COTTONWOOD PAS CLOUDY    66  45  45 NW3       30.54R
GUNNISON       FAIR      75  47  36 VRB5      30.34F
KREMMLING      FAIR      88  30  12 W7        30.30F
LEADVILLE      CLOUDY    56  42  59 S8G16     30.53R
MONARCH PASS   CLOUDY    52  43  71 N12       30.79R
SALIDA         CLOUDY    69  55  62 NE12G22   30.44R
SUNLIGHT       FAIR      59  45  58 CALM      30.61F
WILKERSON PASS LGT RAIN  52  43  71 NE8       30.67F
$$

COZ069>075-230000-
...SAN LUIS VALLEY/SANGRE DE CRISTO MOUNTAINS...

CITY           SKY/WX    TMP DP  RH WIND       PRES   REMARKS
ALAMOSA        LGT RAIN  63  55  75 SE8       30.36F
DEL NORTE      PTSUNNY   65  49  56 W20G25    30.38S
LA VETA PASS   NOT AVBL
SAGUACHE         N/A    N/A N/A N/A MISG        N/A
$$

COZ035-036-038>040-230000-
...NORTHERN COLORADO FRONT RANGE...

CITY           SKY/WX    TMP DP  RH WIND       PRES   REMARKS
DENVER INTL AP PTSUNNY   87  47  24 N10       30.14F
DMNS CITY PARK   N/A     85  47  25 N1G10     30.14S
AURORA         PTSUNNY   86  49  28 CALM      30.17F
FRONT RANGE AP FAIR      90  43  19 N9        30.16F
ERIE MUNI ARPT FAIR      87  46  23 NW3       30.13F
BOULDER MUN AP FAIR      90  46  22 E6        30.14F
CENTENNIAL     PTSUNNY   85  48  27 N9        30.19F
BROOMFIELD     FAIR      84  45  24 NW5       30.19S
FORT COLLINS   FAIR      88  52  29 VRB7      30.12F
LONGMONT       FAIR      91  46  20 W3        30.14F
$$

COZ041-046-047-076>085-087-088-230000-
...PIKES PEAK/PALMER DIVIDE AND SOUTHERN FOOTHILLS...

CITY           SKY/WX    TMP DP  RH WIND       PRES   REMARKS
COLO. SPRINGS  PTSUNNY   83  52  34 E12       30.22F
A. F. ACADEMY  FAIR      82  47  28 NW10      30.23F
SCHRIEVER AFB  FAIR      80  48  33 NE8       30.23S
CHEYENNE MTN   LGT RAIN  73  56  56 S6        30.23F
ELLICOTT       FAIR     N/A N/A N/A SE6       30.21F
FALCON           N/A     83  48  29 NE7       30.29S
FORT CARSON    MOSUNNY   84  55  36 E9        30.18F THUNDER
LIMON          FAIR      82  58  43 E17G23    30.18R
MONUMENT HILL  FAIR      73  50  43 N8        30.31S
CANON CITY     MOSUNNY   88  54  31 E3        30.15F
WALSENBURG     MOCLDY    72  59  64 W10       30.26F
TRINIDAD       CLOUDY    71  52  50 W17       30.26R
$$

COZ042>045-048>051-090-091-230000-
...NORTHEAST COLORADO...

CITY           SKY/WX    TMP DP  RH WIND       PRES   REMARKS
GREELEY ARPT   FAIR      90  53  28 CALM      30.10F
AKRON          FAIR      81  44  27 SE15      30.13F
BURLINGTON     FAIR      83  50  31 E15       30.08F
WRAY           NOT AVBL
YUMA           FAIR      81  46  30 SE8       30.11F
STERLING       FAIR      88  46  23 SE10      30.07F
HOLYOKE        FAIR      88  46  23 SE13      30.08F
FORT MORGAN    FAIR      89  47  23 SE18G25   30.11S
$$

COZ086-089-092>099-230000-
...SOUTHEAST COLORADO...

CITY           SKY/WX    TMP DP  RH WIND       PRES   REMARKS
PUEBLO         FAIR      89  52  28 SE9       30.09S
LA JUNTA       FAIR      89  55  31 E9        30.08R
LAMAR          FAIR      89  59  36 NE13      30.03S
SPRINGFIELD      N/A     91  55  29 MISG      30.05F
$$




USA.gov is the U.S. government's official web portal to all federal, state and local government web resources and services.